Location: Newark
(13.6797°N, 8.5297°E)
Time: 19:46:15
(UTC+00:00)

SR - Pass Details

Date: 29 January 2020
Orbit: 575 x 881 km, 66.7° (Epoch: 19 February)

Event Time Altitude Azimuth Distance (km) Brightness Sun altitude
Rises 18:51:46 0° 184° (S) 3,237 ? -21.2°
Reaches altitude 10° 18:54:13 10° 177° (S) 2,356 ? -21.8°
Enters shadow 18:58:48 40° 122° (ESE) 1,204 ? -22.8°
Maximum altitude 18:59:20 41° 108° (ESE) 1,190 - -23.0°
Drops below altitude 10° 19:04:44 10° 39° (NE) 2,499 - -24.2°
Sets 19:07:23 0° 33° (NNE) 3,455 - -24.9°
